Hlavní strana
METAR-TAF:

METAR-TAF

Letiště :

Andrews-Murphy Airport

Andrews, Severní Karolína, Spojené státy americké

zeměpisná šířka: 35-11-42N, zeměpisná délka: 083-51-49W, výška: 517 m

Aktuální stav počasí

Zpráva byla vytvořena před 16 minutami, v 11:00 UTC
Bezvětří
Teplota 16°C
Vlhkost vzduchu 100%
Tlak 1024 hPa
Viditelnost: 11.3 km
Jasno

METAR: KRHP 241100Z AUTO 00000KT 7SM CLR 16/16 A3023 RMK AO2 T01600160

Čas: 07:16 (11:16 UTC)


TAF: chybějící

Stav a předpovědi počasí z více než 4 000 letišť (zprávy METAR a TAF).

Červené a žluté tečky na mapě představují dostupné meteorologické stanice.

Když kurzor umístíte na tečku, zobrazí se název stanice.

Pak kliknutím zobrazíte stav a předpověď počasí.

Chcete-li změnit mapu, kliknutím na zelené tlačítko se znaménkem +mapu přiblížíte, kliknutím na zelené tlačítko se znaménkem – mapu oddálíte a kliknutím na zelené šipky přejdete na sousední mapy.


METAR-TAF: